EW6379 Weather Reports


Display with metric or nautical units.
time (UTC)temp
F
wind
direction
speed
MPH
gust
MPH
rain 1hr
in
rain 24hr
in
rain mn
in
humidity
%
barometer
mb
20260507144543 61 6.0 11.0 0.00 0.00 0.00 45 1012.2
20260507143040 61 7.0 10.0 0.00 0.00 0.00 45 1012.1
20260507141542 60 6.0 8.0 0.00 0.00 0.00 47 1011.9
20260507140036 59 2.0 5.0 0.00 0.00 0.00 48 1011.6
20260507134537 59 3.0 7.0 0.00 0.00 0.00 47 1011.4
20260507133037 60 3.0 7.0 0.00 0.00 0.00 47 1011.2
20260507131539 59 2.0 6.0 0.00 0.00 0.00 47 1011.0
20260507130029 58 5.0 9.0 0.00 0.00 0.00 48 1010.8
20260507124531 59 5.0 10.0 0.00 0.00 0.00 46 1010.9
20260507123023 58 8.0 11.0 0.00 0.00 0.00 46 1010.8
20260507121521 59 3.0 10.0 0.00 0.00 0.00 45 1010.8
20260507120023 59 5.0 10.0 0.00 0.00 0.00 44 1010.7
20260507114516 59 3.0 9.0 0.00 0.00 0.00 44 1010.6
20260507113016 59 3.0 9.0 0.00 0.00 0.00 44 1010.5
20260507111513 60 2.0 10.0 0.00 0.00 0.00 44 1010.4
20260507110010 60 4.0 11.0 0.00 0.00 0.00 42 1010.3
20260507104509 60 3.0 13.0 0.00 0.00 0.00 42 1010.1
20260507103012 60 7.0 19.0 0.00 0.00 0.00 43 1010.1
20260507101512 61 10.0 14.0 0.00 0.00 0.00 42 1009.9
20260507100002 61 7.0 16.0 0.00 0.00 0.00 41 1009.7
20260507094606 62 8.0 14.0 0.00 0.00 0.00 41 1009.7
20260507093058 62 7.0 14.0 0.00 0.00 0.00 41 1009.5
20260507091557 62 8.0 12.0 0.00 0.00 0.00 40 1009.4
20260507090100 62 9.0 15.0 0.00 0.00 0.00 40 1009.4
20260507084559 62 4.0 13.0 0.00 0.00 0.00 40 1009.4
20260507083052 62 3.0 11.0 0.00 0.00 0.00 40 1009.2
20260507081551 63 7.0 13.0 0.00 0.00 0.00 40 1009.2
20260507080057 63 6.0 11.0 0.00 0.00 0.00 39 1008.9
20260507074542 64 8.0 16.0 0.00 0.00 0.00 38 1008.5
20260507073039 64 8.0 26.0 0.00 0.00 0.00 37 1008.3
20260507071536 64 15.0 29.0 0.00 0.00 0.00 37 1008.1
20260507070034 65 17.0 35.0 0.00 0.00 0.00 37 1007.9
20260507064533 65 23.0 33.0 0.00 0.00 0.00 37 1007.8
20260507063032 65 23.0 34.0 0.00 0.00 0.00 37 1008.0
20260507061532 65 22.0 35.0 0.00 0.00 0.00 37 1008.0
20260507060031 65 18.0 27.0 0.00 0.00 0.00 38 1008.1
20260507054537 66 13.0 28.0 0.00 0.00 0.00 37 1008.3
20260507053032 66 14.0 29.0 0.00 0.00 0.00 36 1008.1
20260507051532 67 15.0 30.0 0.00 0.00 0.00 35 1008.2
20260507050032 68 15.0 22.0 0.00 0.00 0.00 34 1008.4
20260507044529 68 16.0 25.0 0.00 0.00 0.00 33 1008.5
20260507043028 68 6.0 8.0 0.00 0.00 0.00 32 1008.3
20260507041527 70 1.0 3.0 0.00 0.00 0.00 30 1007.8
20260507040026 70 5.0 13.0 0.00 0.00 0.00 29 1007.8
20260507034527 71 4.0 10.0 0.00 0.00 0.00 29 1007.6
20260507033029 72 5.0 14.0 0.00 0.00 0.00 28 1007.6
20260507031525 72 11.0 21.0 0.00 0.00 0.00 27 1007.1
20260507030024 73 8.0 27.0 0.00 0.00 0.00 27 1007.0
20260507024523 74 14.0 23.0 0.00 0.00 0.00 26 1006.8
20260507023023 74 11.0 20.0 0.00 0.00 0.00 25 1006.9
20260507021524 75 12.0 22.0 0.00 0.00 0.00 24 1006.9
20260507020026 75 13.0 27.0 0.00 0.00 0.00 24 1006.8
20260507014526 75 15.0 27.0 0.00 0.00 0.00 23 1006.7
20260507013037 76 13.0 23.0 0.00 0.00 0.00 23 1006.9
20260507011517 76 14.0 23.0 0.00 0.00 0.00 23 1006.9
20260507010023 77 13.0 25.0 0.00 0.00 0.00 22 1006.7
20260507004513 77 11.0 23.0 0.00 0.00 0.00 22 1006.6
20260507003013 77 12.0 21.0 0.00 0.00 0.00 22 1006.6
20260507001512 78 14.0 21.0 0.00 0.00 0.00 23 1006.3
20260507000012 78 12.0 20.0 0.00 0.00 0.00 24 1006.3
20260506234514 79 13.0 25.0 0.00 0.00 0.00 24 1006.3
20260506233010 79 13.0 22.0 0.00 0.00 0.00 23 1006.1
20260506231510 80 10.0 18.0 0.00 0.00 0.00 22 1006.1
20260506230009 80 15.0 21.0 0.00 0.00 0.00 21 1006.2
20260506224507 81 10.0 24.0 0.00 0.00 0.00 23 1006.2
20260506223006 82 11.0 18.0 0.00 0.00 0.00 23 1006.2
20260506221504 82 12.0 18.0 0.00 0.00 0.00 22 1006.3
20260506220003 82 6.0 14.0 0.00 0.00 0.00 27 1006.4
20260506214503 83 0.0 6.0 0.00 0.00 0.00 25 1006.4
20260506213122 84 0.0 4.0 0.00 0.00 0.00 28 1006.5
20260506211555 85 1.0 5.0 0.00 0.00 0.00 25 1006.7
20260506210054 83 2.0 9.0 0.00 0.00 0.00 27 1006.7
20260506204554 84 2.0 6.0 0.00 0.00 0.00 27 1006.9
20260506203051 84 1.0 5.0 0.00 0.00 0.00 29 1007.1
20260506201547 82 1.0 5.0 0.00 0.00 0.00 30 1007.1
20260506200047 81 2.0 8.0 0.00 0.00 0.00 30 1007.4
20260506194547 81 1.0 10.0 0.00 0.00 0.00 31 1007.5
20260506193042 81 2.0 6.0 0.00 0.00 0.00 32 1007.8
20260506191542 79 1.0 6.0 0.00 0.00 0.00 31 1008.0
20260506190037 79 0.0 5.0 0.00 0.00 0.00 33 1008.2
20260506184545 77 2.0 7.0 0.00 0.00 0.00 34 1008.3
20260506183038 75 1.0 6.0 0.00 0.00 0.00 37 1008.4
20260506181537 75 1.0 6.0 0.00 0.00 0.00 38 1008.7
20260506180027 72 0.0 5.0 0.00 0.00 0.00 39 1008.8
20260506174525 70 0.0 5.0 0.00 0.00 0.00 45 1008.9
20260506173020 68 4.0 7.0 0.00 0.00 0.00 50 1009.0
20260506171519 66 2.0 9.0 0.00 0.00 0.00 49 1009.2
20260506170018 65 5.0 10.0 0.00 0.00 0.00 49 1009.2
20260506164518 65 5.0 9.0 0.00 0.00 0.00 50 1009.3
20260506163018 64 4.0 9.0 0.00 0.00 0.00 52 1009.4
20260506161518 62 7.0 10.0 0.00 0.00 0.00 53 1009.4
20260506160017 62 4.0 8.0 0.00 0.00 0.00 54 1009.6
20260506154515 61 4.0 8.0 0.00 0.00 0.00 57 1009.5
20260506153020 61 4.0 7.0 0.00 0.00 0.00 57 1009.6
20260506151515 60 3.0 7.0 0.00 0.00 0.00 59 1009.7
20260506150014 58 4.0 7.0 0.00 0.00 0.00 62 1009.7